Hourly Weather Ruda

Today, 16 May, Sunday

Time Temperature Precipitation Wind Pressure Humidity
00:00 +12°C° 0.1 mm 2 mps 748 mmHg 94%
01:00 +12°C° 0 mm 2 mps 747 mmHg 95%
02:00 +12°C° 0.6 mm 2 mps 747 mmHg 96%
03:00 +10°C° 0.6 mm 2 mps 747 mmHg 97%
04:00 +11°C° 0.6 mm 1 mps 747 mmHg 97%
05:00 +12°C° 0.7 mm 2 mps 747 mmHg 95%
06:00 +13°C° 0.7 mm 2 mps 747 mmHg 92%
07:00 +12°C° 0.7 mm 3 mps 747 mmHg 90%
08:00 +13°C° 0.3 mm 3 mps 747 mmHg 85%
09:00 +14°C° 0.3 mm 3 mps 747 mmHg 79%
10:00 +16°C° 0.3 mm 3 mps 747 mmHg 74%
11:00 +17°C° 0.5 mm 4 mps 746 mmHg 71%
12:00 +17°C° 0.5 mm 4 mps 746 mmHg 68%
13:00 +17°C° 0.5 mm 4 mps 746 mmHg 64%
14:00 +17°C° 0.3 mm 4 mps 746 mmHg 66%
15:00 +17°C° 0.3 mm 4 mps 746 mmHg 67%
16:00 +17°C° 0.3 mm 4 mps 746 mmHg 68%
17:00 +14°C° 0.3 mm 3 mps 746 mmHg 74%
18:00 +13°C° 0.3 mm 3 mps 746 mmHg 80%
19:00 +13°C° 0.3 mm 2 mps 746 mmHg 86%
20:00 +12°C° 0 mm 2 mps 746 mmHg 87%
21:00 +10°C° 0 mm 2 mps 746 mmHg 89%
22:00 +9°C° 0 mm 2 mps 747 mmHg 90%
23:00 +9°C° 0 mm 2 mps 747 mmHg 91%

Tomorrow, 17 May, Monday

Time Temperature Precipitation Wind Pressure Humidity
00:00 +9°C° 0 mm 2 mps 747 mmHg 91%
01:00 +8°C° 0 mm 2 mps 747 mmHg 92%
02:00 +8°C° 0 mm 2 mps 747 mmHg 92%
03:00 +8°C° 0 mm 2 mps 747 mmHg 93%
04:00 +7°C° 0 mm 2 mps 747 mmHg 93%
05:00 +9°C° 0 mm 2 mps 747 mmHg 90%
06:00 +12°C° 0 mm 2 mps 747 mmHg 86%
07:00 +13°C° 0 mm 2 mps 747 mmHg 82%
08:00 +14°C° 0.1 mm 2 mps 747 mmHg 77%
09:00 +15°C° 0.1 mm 2 mps 747 mmHg 72%
10:00 +17°C° 0.1 mm 2 mps 747 mmHg 67%
11:00 +16°C° 0.2 mm 3 mps 747 mmHg 68%
12:00 +16°C° 0.2 mm 3 mps 747 mmHg 70%
13:00 +14°C° 0.2 mm 4 mps 747 mmHg 72%
14:00 +13°C° 0.8 mm 3 mps 747 mmHg 79%
15:00 +12°C° 0.8 mm 3 mps 747 mmHg 87%
16:00 +11°C° 0.8 mm 3 mps 748 mmHg 94%
17:00 +12°C° 0.3 mm 2 mps 747 mmHg 94%
18:00 +12°C° 0.3 mm 1 mps 747 mmHg 95%
19:00 +12°C° 0.3 mm 1 mps 747 mmHg 95%
20:00 +12°C° 0.1 mm 1 mps 747 mmHg 95%
21:00 +11°C° 0.1 mm 1 mps 747 mmHg 95%
22:00 +11°C° 0.1 mm 1 mps 747 mmHg 95%
23:00 +11°C° 0 mm 1 mps 747 mmHg 95%

Day after tomorrow, 18 May, Tuesday

Time Temperature Precipitation Wind Pressure Humidity
00:00 +11°C° 0 mm 1 mps 748 mmHg 96%
01:00 +11°C° 0 mm 1 mps 748 mmHg 96%
02:00 +9°C° 0 mm 2 mps 748 mmHg 96%
03:00 +9°C° 0 mm 2 mps 748 mmHg 97%
04:00 +9°C° 0 mm 2 mps 748 mmHg 97%
05:00 +10°C° 0 mm 3 mps 748 mmHg 95%
06:00 +10°C° 0 mm 3 mps 748 mmHg 92%
07:00 +11°C° 0 mm 4 mps 748 mmHg 90%
08:00 +12°C° 0.1 mm 4 mps 748 mmHg 84%
09:00 +13°C° 0.1 mm 4 mps 748 mmHg 78%
10:00 +14°C° 0.1 mm 5 mps 748 mmHg 71%
11:00 +15°C° 0.3 mm 5 mps 748 mmHg 70%
12:00 +15°C° 0.3 mm 5 mps 748 mmHg 69%
13:00 +15°C° 0.3 mm 5 mps 748 mmHg 67%
14:00 +15°C° 0.5 mm 5 mps 749 mmHg 72%
15:00 +14°C° 0.5 mm 4 mps 749 mmHg 76%
16:00 +14°C° 0.5 mm 4 mps 749 mmHg 81%
17:00 +13°C° 0.3 mm 4 mps 750 mmHg 84%
18:00 +12°C° 0.3 mm 3 mps 750 mmHg 87%
19:00 +11°C° 0.3 mm 3 mps 750 mmHg 90%
20:00 +12°C° 0 mm 2 mps 750 mmHg 91%
21:00 +10°C° 0 mm 2 mps 751 mmHg 92%
22:00 +9°C° 0 mm 2 mps 751 mmHg 94%
23:00 +8°C° 0 mm 2 mps 751 mmHg 94%

19 May, Wednesday

Time Temperature Precipitation Wind Pressure Humidity
00:00 +8°C° 0 mm 2 mps 751 mmHg 94%
01:00 +8°C° 0 mm 2 mps 752 mmHg 94%
02:00 +7°C° 0 mm 2 mps 752 mmHg 95%
03:00 +7°C° 0 mm 2 mps 752 mmHg 95%
04:00 +7°C° 0 mm 2 mps 752 mmHg 96%
05:00 +8°C° 0 mm 3 mps 752 mmHg 93%
06:00 +9°C° 0 mm 3 mps 752 mmHg 89%
07:00 +11°C° 0 mm 3 mps 753 mmHg 86%
08:00 +12°C° 0.2 mm 4 mps 753 mmHg 81%
09:00 +13°C° 0.2 mm 4 mps 753 mmHg 76%
10:00 +14°C° 0.2 mm 4 mps 753 mmHg 70%
11:00 +14°C° 0.5 mm 4 mps 753 mmHg 74%
12:00 +13°C° 0.5 mm 5 mps 753 mmHg 77%
13:00 +13°C° 0.5 mm 5 mps 753 mmHg 81%
14:00 +13°C° 0.4 mm 5 mps 753 mmHg 77%
15:00 +13°C° 0.4 mm 5 mps 753 mmHg 73%
16:00 +14°C° 0.4 mm 5 mps 753 mmHg 70%
17:00 +13°C° 0.1 mm 4 mps 753 mmHg 72%
18:00 +12°C° 0.1 mm 3 mps 754 mmHg 74%
19:00 +11°C° 0.1 mm 3 mps 754 mmHg 76%
20:00 +10°C° 0 mm 3 mps 754 mmHg 80%
21:00 +8°C° 0 mm 2 mps 754 mmHg 84%
22:00 +7°C° 0 mm 2 mps 754 mmHg 88%
23:00 +7°C° 0 mm 2 mps 754 mmHg 89%

20 May, Thursday

Time Temperature Precipitation Wind Pressure Humidity
00:00 +6°C° 0 mm 2 mps 754 mmHg 90%
01:00 +6°C° 0 mm 2 mps 754 mmHg 91%
02:00 +6°C° 0 mm 2 mps 754 mmHg 91%
03:00 +5°C° 0 mm 2 mps 754 mmHg 92%
04:00 +5°C° 0 mm 2 mps 754 mmHg 92%
05:00 +7°C° 0 mm 3 mps 755 mmHg 88%
06:00 +9°C° 0 mm 3 mps 755 mmHg 83%
07:00 +11°C° 0 mm 3 mps 755 mmHg 79%
08:00 +12°C° 0.1 mm 4 mps 755 mmHg 72%
09:00 +13°C° 0.1 mm 4 mps 755 mmHg 65%
10:00 +15°C° 0.1 mm 4 mps 755 mmHg 57%
11:00 +15°C° 0.2 mm 5 mps 755 mmHg 56%
12:00 +15°C° 0.2 mm 5 mps 755 mmHg 54%
13:00 +16°C° 0.2 mm 6 mps 755 mmHg 52%
14:00 +15°C° 0.1 mm 5 mps 755 mmHg 55%
15:00 +15°C° 0.1 mm 5 mps 755 mmHg 58%
16:00 +14°C° 0.1 mm 5 mps 755 mmHg 61%
17:00 +13°C° 0.2 mm 4 mps 755 mmHg 67%
18:00 +12°C° 0.2 mm 3 mps 755 mmHg 74%
19:00 +12°C° 0.2 mm 2 mps 755 mmHg 81%
20:00 +10°C° 0 mm 3 mps 755 mmHg 84%
21:00 +9°C° 0 mm 3 mps 755 mmHg 88%
22:00 +8°C° 0 mm 3 mps 755 mmHg 91%
23:00 +8°C° 0 mm 3 mps 755 mmHg 92%

21 May, Friday

Time Temperature Precipitation Wind Pressure Humidity
00:00 +7°C° 0 mm 3 mps 755 mmHg 93%
01:00 +7°C° 0 mm 3 mps 755 mmHg 94%
02:00 +7°C° 0 mm 3 mps 755 mmHg 95%
03:00 +5°C° 0 mm 3 mps 755 mmHg 96%
04:00 +4°C° 0 mm 3 mps 755 mmHg 97%
05:00 +7°C° 0 mm 3 mps 754 mmHg 90%
06:00 +8°C° 0 mm 3 mps 754 mmHg 84%
07:00 +10°C° 0 mm 4 mps 754 mmHg 78%
08:00 +11°C° 0 mm 4 mps 754 mmHg 72%
09:00 +12°C° 0 mm 5 mps 754 mmHg 65%
10:00 +14°C° 0 mm 5 mps 754 mmHg 59%
11:00 +14°C° 0.1 mm 5 mps 753 mmHg 62%
12:00 +14°C° 0.1 mm 5 mps 753 mmHg 65%
13:00 +14°C° 0.1 mm 4 mps 752 mmHg 68%
14:00 +14°C° 0.2 mm 4 mps 752 mmHg 70%
15:00 +14°C° 0.2 mm 4 mps 751 mmHg 71%
16:00 +14°C° 0.2 mm 4 mps 751 mmHg 73%
17:00 +14°C° 0.1 mm 3 mps 751 mmHg 75%
18:00 +13°C° 0.1 mm 3 mps 750 mmHg 78%
19:00 +13°C° 0.1 mm 3 mps 750 mmHg 80%
20:00 +12°C° 0 mm 3 mps 750 mmHg 81%
21:00 +11°C° 0 mm 4 mps 749 mmHg 82%
22:00 +11°C° 0 mm 4 mps 749 mmHg 83%
23:00 +11°C° 0 mm 4 mps 749 mmHg 81%
Show more